This demonstration page uses our WeatherBlox Daily Observations layout. Learn more.

Hourly Observations for June 4, 2020

Temp ( °F °C ) Dew Point ( °F °C ) Humidity (%) Winds ( mph kmh ) Pressure ( in mb ) Visibility ( mi km ) Precip ( " mm )
12:06 am 00:06 Cloudy with Nearby Thunderstorms 67 19.4 63 17.2 87 87 SSE 12 19 29.83 1010 7 11.26538 0.02 0.508
12:16 am 00:16 Cloudy with Thunderstorms 66 18.9 63 17.2 90 90 SE 12 19 29.81 1010 7 11.26538 0.04 1.016
12:31 am 00:31 Cloudy with Rain 67 19.4 63 17.2 87 87 SE 20 31 29.77 1008 6 9.65604 0.08 2.032
12:54 am 00:54 Mostly Cloudy with Light Rain 67 19.4 62 16.7 84 84 SE 14 22 29.72 1007 10 16.0934 0.11 2.794
1:54 am 01:54 Clear 67 19.4 61 16.1 81 81 NW 5 7 29.73 1007 10 16.0934 0.001 0.001
2:54 am 02:54 Clear 64 17.8 61 16.1 90 90 NNE 7 11 29.74 1007 10 16.0934 0 0
3:54 am 03:54 Clear 66 18.9 61 16.1 84 84 NNW 8 13 29.72 1007 10 16.0934 0 0
4:54 am 04:54 Clear 63 17.2 59 15 87 87 Calm 29.73 1007 10 16.0934 0 0
5:54 am 05:54 Clear 64 17.8 60 15.6 87 87 WSW 3 6 29.77 1008 10 16.0934 0 0
6:54 am 06:54 Sunny 65 18.3 60 15.6 84 84 WSW 9 15 29.79 1009 10 16.0934 0 0
7:54 am 07:54 Sunny 69 20.6 61 16.1 76 76 WSW 7 11 29.8 1009 10 16.0934 0 0
8:54 am 08:54 Sunny 73 22.8 62 16.7 69 69 WSW 8 13 29.8 1009 10 16.0934 0 0
9:54 am 09:54 Sunny 76 24.4 63 17.2 64 64 S 6 9 29.8 1009 10 16.0934 0 0
10:54 am 10:54 Sunny 81 27.2 64 17.8 57 57 S 8 13 29.78 1008 10 16.0934 0 0
11:54 am 11:54 Sunny 84 28.9 63 17.2 49 49 S 9 15 29.77 1008 10 16.0934 0 0
12:54 pm 12:54 Sunny 85 29.4 65 18.3 51 51 S 12 19 29.75 1008 10 16.0934 0 0
1:54 pm 13:54 Sunny 87 30.6 65 18.3 48 48 S 9 15 29.74 1007 10 16.0934 0 0
2:54 pm 14:54 Sunny 88 31.1 65 18.3 46 46 S 9 15 29.72 1007 10 16.0934 0 0
3:54 pm 15:54 Sunny 89 31.7 68 20 50 50 S 14 22 29.7 1006 10 16.0934 0 0
4:54 pm 16:54 Sunny 90 32.2 69 20.6 50 50 S 14 22 29.69 1005 10 16.0934 0 0
5:54 pm 17:54 Sunny 90 32.2 69 20.6 50 50 S 14 22 29.67 1005 10 16.0934 0 0
6:54 pm 18:54 Sunny 89 31.7 68 20 50 50 S 12 19 29.67 1005 10 16.0934 0 0
7:54 pm 19:54 Sunny 86 30 70 21.1 59 59 S 9 15 29.67 1005 10 16.0934 0 0
8:54 pm 20:54 Sunny 81 27.2 69 20.6 67 67 SSE 8 13 29.67 1005 10 16.0934 0 0
9:54 pm 21:54 Clear 79 26.1 70 21.1 74 74 SSE 8 13 29.68 1005 10 16.0934 0 0
10:54 pm 22:54 Clear 79 26.1 71 21.7 77 77 S 10 17 29.72 1006 10 16.0934 0 0
11:23 pm 23:23 Clear with Nearby Thunderstorms 80 26.7 71 21.7 74 74 S 14 22 29.69 1005 10 16.0934 0 0
11:30 pm 23:30 Mostly Clear with Thunderstorms 80 26.7 71 21.7 74 74 WNW 36 57 29.81 1009 9 14.48406 0 0
11:33 pm 23:33 Mostly Clear with Thunderstorms 76 24.4 66 18.9 72 72 W 47 76 29.82 1010 2.5 4.02335 0 0
11:35 pm 23:35 Partly Cloudy with Heavy Thunderstorms 70 21.1 62 16.7 76 76 WNW 38 61 29.84 1011 1 1.60934 0.001 0.001
11:41 pm 23:41 Mostly Cloudy with Heavy Thunderstorms 65 18.3 62 16.7 90 90 W 23 37 29.87 1012 0.5 0.80467 0.12 3.048
11:46 pm 23:46 Mostly Cloudy with Heavy Thunderstorms 65 18.3 62 16.7 90 90 WNW 22 35 29.84 1011 1 1.60934 0.25 6.35
11:54 pm 23:54 Mostly Cloudy with Heavy Thunderstorms 66 18.9 62 16.7 87 87 NW 18 30 29.8 1009 1.5 2.41401 0.36 9.144

Powered by AerisWeather